Orbital Elements at Epoch 2459200.5 (2020-Dec-17.0) TDB
Reference: JPL 17 (heliocentric ecliptic J2000)
Element | Value | Uncertainty (1-sigma) | Units |
e | .178032604337331 | 3.4771e-08 | |
a | 2.67375653552018 | 1.8453e-08 | au |
q | 2.197740696137563 | 9.5375e-08 | au |
i | 11.87259263794703 | 5.4889e-06 | deg |
node | 158.935219381912 | 2.3081e-05 | deg |
peri | 129.262048277666 | 2.894e-05 | deg |
M | 231.5419124890218 | 1.9483e-05 | deg |
tp | 2459770.323251753896 (2022-Jul-09.82325175) | 8.908e-05 | TDB |
period | 1596.912849989856 4.37 | 1.6532e-05 4.526e-08 | d yr |
n | .2254349697306818 | 2.3338e-09 | deg/d |
Q | 3.149772374902797 | 2.1738e-08 | au |
|
| | Orbit Determination Parameters
Additional Information
|